Regional Weather Roundup
Issued by NWS

Home | Current Version | Previous Version | Graphics & Text | Print | Product List | Glossary Off
Versions: 1 2 3 4 5 6 7 8 9 10 11 12 13 14 15 16 17 18 19 20 21 22 23 24 25 26 27 28 29 30 31 32 33 34 35 36 37 38 39 40 41 42 43 44 45 46 47 48 49 50

000
ASUS43 KTOP 120659
RWRKS

WEATHER ROUNDUP FOR KANSAS
NATIONAL WEATHER SERVICE GOODLAND KS
100 AM CST FRI FEB 12 2016

NOTE:  "FAIR" INDICATES FEW OR NO CLOUDS BELOW 12,000 FEET WITH NO
SIGNIFICANT WEATHER AND/OR OBSTRUCTIONS TO VISIBILITY.

KSZ001>006-013>018-027>032-041>047-120800-
NORTHWEST KANSAS

CITY           SKY/WX    TMP DP  RH WIND       PRES   REMARKS
GOODLAND       CLOUDY    32  26  78 NW12      30.24S WCI  23
RUSSELL        CLEAR     29  27  92 NW9       30.18R
$$

KSZ061>065-074>080-084>089-120800-
SOUTHWEST KANSAS

CITY           SKY/WX    TMP DP  RH WIND       PRES   REMARKS
DODGE CITY     CLOUDY    35  27  72 W9        30.20S
ELKHART          N/A     39  22  50 NW6         N/A
GARDEN CITY    CLOUDY    33  27  78 NW8       30.22R
GREAT BEND     CLEAR     27  18  69 NW5       30.19R
LIBERAL        CLOUDY    39  23  52 CALM      30.22R
$$

KSZ066>073-081>083-090>101-120800-
SOUTHEAST KANSAS

CITY           SKY/WX    TMP DP  RH WIND       PRES   REMARKS
CHANUTE        CLEAR     28  23  81 S6        30.16F
COFFEYVILLE    PTCLDY    26  22  84 CALM      30.19S
HUTCHINSON     CLEAR     31  25  78 W3        30.18S
MEDICINE LODGE   N/A     31  27  85 W3        30.18F
NEWTON         CLOUDY    34  23  64 W9        30.18S
PARSONS        CLEAR     26  22  84 CALM      30.17F
WICHITA INTL   PTCLDY    31  24  75 SW3       30.18S
WICHITA JABRA  CLEAR     33  25  72 SW3       30.17F
WINFIELD       CLEAR     29  22  75 CALM      30.19F
$$

KSZ007>012-019>026-033>040-048>060-102>105-120800-
NORTHEAST KANSAS

CITY           SKY/WX    TMP DP  RH WIND       PRES   REMARKS
CONCORDIA      CLEAR     28  24  85 NW8       30.19R
EMPORIA        CLOUDY    28  22  78 W6        30.15S
LAWRENCE       CLEAR     23  20  88 NW3       30.19R
MANHATTAN      CLOUDY    26  23  88 VRB3      30.19R
OLATHE IND     CLEAR     28  21  75 NE5       30.17S
OLATHE EXE     CLEAR     29  20  69 NE5       30.17R
SALINA         CLEAR     30  24  78 N7        30.20R
TOPEKA BILLARD CLEAR     29  22  75 CALM      30.19R
TOPEKA FORBES  CLEAR     28  22  78 N5        30.18R
$$



USA.gov is the U.S. government's official web portal to all federal, state and local government web resources and services.